SBFZGOOY

Guest
Details From SBFZ - Pinto Martins
To GOOY - Dakar Leopold Sedar Senghor Intl
Flight Number -
Tags generated
Created
Modified
Stats Distance 1,741 nm / 3,224 km
Max Altitude 35,000 ft / 10,668 m
Waypoints 9
Social Downloads 1
Likes 0
Share VATSIM

Download

Looking for another format? Having issues loading an existing format? Contact us
Advertisement - Login to hide

Notes

Basic altitude profile: - Ascent Rate: 2500ft/min - Ascent Speed: 250kts - Cruise Altitude: 35000ft - Cruise Speed: 420kts - Descent Rate: 1500ft/min - Descent Speed: 250kts Options: - Use NATs: yes - Use PACOTS: no - Use low airways: no - Use high airways: no

Route

SBFZ 100S03500W 000N03500W 100N03500W 200N03500W 600N03000W 1000N02500W 1300N02000W GOOY

ID Type Via Altitude Latitude Longitude Leg Dist Tot Dist Heading (true) Name
O SBFZ APT - 0 ft / 0 m -3.77628˚ -38.53256˚ - 0 nm - Pinto Martins
100S03500W LATLON - 35,000 ft / 10,668 m -1.00000˚ -35.00000˚ 269 nm 269 nm 52° / 52° -
000N03500W LATLON - 35,000 ft / 10,668 m 0.00000˚ -35.00000˚ 60 nm 329 nm 0° / 360° -
100N03500W LATLON - 35,000 ft / 10,668 m 1.00000˚ -35.00000˚ 60 nm 389 nm 0° / 360° -
200N03500W LATLON - 35,000 ft / 10,668 m 2.00000˚ -35.00000˚ 60 nm 449 nm 0° / 360° -
600N03000W LATLON - 35,000 ft / 10,668 m 6.00000˚ -30.00000˚ 383 nm 833 nm 51° / 51° -
1000N02500W LATLON - 35,000 ft / 10,668 m 10.00000˚ -25.00000˚ 382 nm 1216 nm 51° / 51° -
1300N02000W LATLON - 35,000 ft / 10,668 m 13.00000˚ -20.00000˚ 345 nm 1561 nm 58° / 59° -
O GOOY APT - 0 ft / 0 m 14.73971˚ -17.49023˚ 179 nm 1740 nm 54° / 55° Dakar Leopold Sedar Senghor Intl

Altitude Profile

Advertisement - Login to hide

Weather


0- 5 10 15 20 25 30 35+ Temperature / ° C

Clouds and Precipitation
Forecast for 2018-05-26 12:00 UTC. Updated 5 hours ago

Ground ~20,000 ft ~40,000 ft Winds

SBFZ

Details ICAO SBFZ (FOR)
Name Pinto Martins
Region Brazil
Timezone America/Fortaleza (UTC-3.0)
Stats Elevation 82 ft / 25 m (AMSL)
Location -3.776283° -38.532556°
Runways 1
Magnetic Variation 21.109° W

METAR

SBFZ 261600Z 10009KT 9999 SCT027 FEW030TCU 27/24 Q1012

Decode

TAF

TAF SBFZ 261000Z 2612/2712 12009KT 8000 BKN015 FEW025TCU TX30/2615Z TN25/2708Z BECMG 2614/2615 09009KT SCT025 BECMG 2622/2624 15007KT PROB30 TEMPO 2701/2703 5000 SHRA SCT012 BKN017 BECMG 2704/2705 19005KT PROB30 TEMPO 2708/2710 5000 SHRA SCT012 BKN017 RMK PEI

Decode

Departure Runways

ID Width Length Bearing (true) Bearing (mag) Surface Threshold Offset Overrun Length
13 148 ft / 45 m 8,360 ft / 2,548 m 104.88° 125.99° Asphalt 0 ft / 0 m 195 ft / 59 m
31 148 ft / 45 m 8,360 ft / 2,548 m 284.88° 305.99° Asphalt 0 ft / 0 m 125 ft / 38 m

GOOY

Details ICAO GOOY (DKR)
Name Dakar Leopold Sedar Senghor Intl
Region Senegal
Timezone Africa/Dakar (UTC+0.0)
Stats Elevation 85 ft / 26 m (AMSL)
Location 14.739711° -17.490226°
Runways 2
Magnetic Variation 7.297° W

METAR

GOOY 261600Z 34006KT CAVOK 24/18 Q1012

Decode

TAF

TAF GOOY 261130Z 2612/2718 34008KT CAVOK= TAF GBYD 261130Z 2612/2718 28007KT 9999 SCT010

Decode

Destination Runways

ID Width Length Bearing (true) Bearing (mag) Surface Threshold Offset Overrun Length
03 98 ft / 30 m 4,921 ft / 1,500 m 22.31° 29.61° Asphalt 0 ft / 0 m 98 ft / 30 m
18 148 ft / 45 m 11,511 ft / 3,509 m 172.57° 179.87° Asphalt 525 ft / 160 m 197 ft / 60 m
21 98 ft / 30 m 4,921 ft / 1,500 m 202.31° 209.61° Asphalt 0 ft / 0 m 1,590 ft / 485 m
36 148 ft / 45 m 11,511 ft / 3,509 m 352.57° 359.87° Asphalt 0 ft / 0 m 197 ft / 60 m

Approach Navaids

Runway Type Ident Frequency Range Bearing (true) Bearing (mag) Slope Elevation
36 Localiser YF 110.30 MHz 18 nm / 33 km 352.33° 359.62° - 65 ft / 20 m (AMSL)
36 Glidescope YF 110.30 MHz 10 nm / 19 km 352.57° 359.87° 3.01° 73 ft / 22 m (AMSL)
36 DME YF 110.30 MHz 18 nm / 33 km - - - 73 ft / 22 m (AMSL)

Popular Alternatives